TimeCDT,TemperatureF,Dew PointF,Humidity,Sea Level PressureIn,VisibilityMPH,Wind Direction,Wind SpeedMPH,Gust SpeedMPH,PrecipitationIn,Events,Conditions,WindDirDegrees,DateUTC
12:35 AM,68.0,64.4,88,29.70,10.0,SSW,21.9,28.8,N/A,,Clear,210,2012-10-17 05:35:00
12:55 AM,68.0,64.4,88,29.70,10.0,SSW,25.3,34.5,N/A,,Clear,210,2012-10-17 05:55:00
1:15 AM,68.0,64.4,88,29.70,10.0,SSW,23.0,29.9,N/A,,Scattered Clouds,210,2012-10-17 06:15:00
1:35 AM,68.0,64.4,88,29.70,10.0,SSW,20.7,33.4,N/A,,Scattered Clouds,210,2012-10-17 06:35:00
1:55 AM,68.0,64.4,88,29.70,10.0,SSW,20.7,32.2,N/A,,Clear,210,2012-10-17 06:55:00
2:15 AM,68.0,64.4,88,29.70,10.0,SSW,19.6,28.8,N/A,,Clear,210,2012-10-17 07:15:00
2:55 AM,68.0,64.4,88,29.69,10.0,SSW,20.7,28.8,N/A,,Clear,200,2012-10-17 07:55:00
3:15 AM,68.0,64.4,88,29.69,10.0,SSW,18.4,29.9,N/A,,Clear,200,2012-10-17 08:15:00
3:35 AM,68.0,64.4,88,29.68,10.0,SSW,23.0,31.1,N/A,,Clear,210,2012-10-17 08:35:00
3:55 AM,68.0,64.4,88,29.68,10.0,SSW,19.6,27.6,N/A,,Clear,210,2012-10-17 08:55:00
4:15 AM,68.0,64.4,88,29.68,10.0,SSW,23.0,31.1,N/A,,Clear,210,2012-10-17 09:15:00
4:35 AM,68.0,64.4,88,29.67,10.0,SSW,17.3,28.8,N/A,,Scattered Clouds,210,2012-10-17 09:35:00
4:55 AM,68.0,64.4,88,29.67,10.0,SSW,20.7,27.6,N/A,,Scattered Clouds,210,2012-10-17 09:55:00
5:15 AM,68.0,64.4,88,29.67,10.0,SSW,18.4,31.1,N/A,,Scattered Clouds,200,2012-10-17 10:15:00
5:35 AM,68.0,64.4,88,29.67,10.0,SSW,20.7,27.6,N/A,,Scattered Clouds,200,2012-10-17 10:35:00
5:55 AM,66.2,64.4,94,29.66,10.0,SSW,19.6,28.8,N/A,,Clear,200,2012-10-17 10:55:00
6:15 AM,66.2,64.4,94,29.65,10.0,SSW,19.6,29.9,N/A,,Clear,200,2012-10-17 11:15:00
6:35 AM,66.2,64.4,94,29.65,10.0,SSW,16.1,23.0,N/A,,Clear,200,2012-10-17 11:35:00
6:55 AM,66.2,62.6,88,29.65,10.0,SSW,16.1,23.0,N/A,,Clear,200,2012-10-17 11:55:00
7:15 AM,66.2,62.6,88,29.66,10.0,SSW,17.3,21.9,N/A,,Clear,210,2012-10-17 12:15:00
7:35 AM,66.2,62.6,88,29.67,10.0,SSW,13.8,20.7,N/A,,Clear,200,2012-10-17 12:35:00
7:55 AM,66.2,62.6,88,29.67,10.0,South,15.0,24.2,N/A,,Clear,190,2012-10-17 12:55:00
8:15 AM,66.2,62.6,88,29.66,10.0,SSW,17.3,23.0,N/A,,Clear,200,2012-10-17 13:15:00
8:35 AM,68.0,62.6,83,29.66,10.0,SSW,17.3,25.3,N/A,,Clear,200,2012-10-17 13:35:00
8:55 AM,68.0,64.4,88,29.65,10.0,SSW,17.3,23.0,N/A,,Clear,210,2012-10-17 13:55:00
9:15 AM,69.8,64.4,83,29.64,10.0,SW,20.7,28.8,N/A,,Clear,220,2012-10-17 14:15:00
9:35 AM,69.8,64.4,83,29.65,10.0,SW,20.7,28.8,N/A,,Clear,220,2012-10-17 14:35:00
9:55 AM,71.6,64.4,78,29.65,10.0,SW,21.9,31.1,N/A,,Clear,230,2012-10-17 14:55:00
10:15 AM,73.4,62.6,69,29.66,10.0,North,-9999.0,-,N/A,,Clear,0,2012-10-17 15:15:00
10:35 AM,77.0,62.6,61,29.66,10.0,SW,19.6,29.9,N/A,,Clear,230,2012-10-17 15:35:00
10:55 AM,78.8,62.6,57,29.68,10.0,North,-9999.0,-,N/A,,Clear,0,2012-10-17 15:55:00
11:15 AM,78.8,60.8,54,29.69,10.0,West,19.6,26.5,N/A,,Clear,260,2012-10-17 16:15:00
11:35 AM,80.6,60.8,51,29.69,10.0,WSW,18.4,24.2,N/A,,Clear,250,2012-10-17 16:35:00
11:55 AM,80.6,59.0,48,29.69,10.0,West,15.0,25.3,N/A,,Clear,270,2012-10-17 16:55:00
12:15 PM,80.6,55.4,42,29.69,10.0,West,18.4,26.5,N/A,,Clear,270,2012-10-17 17:15:00
12:35 PM,80.6,53.6,39,29.69,10.0,WNW,12.7,21.9,N/A,,Clear,300,2012-10-17 17:35:00
12:55 PM,82.4,53.6,37,29.69,10.0,West,12.7,20.7,N/A,,Clear,280,2012-10-17 17:55:00
1:15 PM,82.4,53.6,37,29.69,10.0,West,10.4,20.7,N/A,,Clear,280,2012-10-17 18:15:00
1:35 PM,84.2,46.4,27,29.68,10.0,NW,10.4,21.9,N/A,,Clear,320,2012-10-17 18:35:00
1:55 PM,84.2,46.4,27,29.69,10.0,NW,13.8,18.4,N/A,,Clear,310,2012-10-17 18:55:00
2:15 PM,84.2,44.6,25,29.68,10.0,WNW,8.1,16.1,N/A,,Clear,300,2012-10-17 19:15:00
2:35 PM,84.2,44.6,25,29.67,10.0,NNW,4.6,-,N/A,,Clear,340,2012-10-17 19:35:00
2:55 PM,84.2,44.6,25,29.68,10.0,NNW,11.5,-,N/A,,Clear,340,2012-10-17 19:55:00
3:15 PM,84.2,42.8,23,29.67,10.0,NW,5.8,-,N/A,,Clear,310,2012-10-17 20:15:00
3:35 PM,86.0,42.8,22,29.66,10.0,North,11.5,-,N/A,,Clear,350,2012-10-17 20:35:00
3:55 PM,86.0,42.8,22,29.67,10.0,North,9.2,-,N/A,,Clear,350,2012-10-17 20:55:00
4:15 PM,86.0,42.8,22,29.68,10.0,NNW,8.1,-,N/A,,Clear,340,2012-10-17 21:15:00
4:35 PM,84.2,42.8,23,29.68,10.0,North,9.2,-,N/A,,Clear,350,2012-10-17 21:35:00
4:55 PM,84.2,42.8,23,29.68,10.0,North,9.2,-,N/A,,Clear,350,2012-10-17 21:55:00
5:15 PM,84.2,42.8,23,29.69,10.0,NNW,9.2,-,N/A,,Clear,340,2012-10-17 22:15:00
5:35 PM,82.4,42.8,25,29.70,10.0,NNW,8.1,-,N/A,,Clear,340,2012-10-17 22:35:00
5:55 PM,82.4,42.8,25,29.70,10.0,North,9.2,-,N/A,,Clear,350,2012-10-17 22:55:00
6:15 PM,82.4,42.8,25,29.71,10.0,North,8.1,-,N/A,,Clear,350,2012-10-17 23:15:00
6:35 PM,78.8,42.8,28,29.72,10.0,North,8.1,-,N/A,,Clear,350,2012-10-17 23:35:00
6:55 PM,77.0,42.8,29,29.73,10.0,North,8.1,-,N/A,,Clear,350,2012-10-17 23:55:00
7:15 PM,75.2,42.8,31,29.74,10.0,North,3.5,-,N/A,,Clear,360,2012-10-18 00:15:00
7:35 PM,73.4,44.6,36,29.75,10.0,North,5.8,-,N/A,,Clear,10,2012-10-18 00:35:00
7:55 PM,71.6,44.6,38,29.75,10.0,North,4.6,-,N/A,,Clear,10,2012-10-18 00:55:00
8:15 PM,71.6,44.6,38,29.77,10.0,North,4.6,-,N/A,,Clear,10,2012-10-18 01:15:00
8:35 PM,71.6,44.6,38,29.78,10.0,NNE,3.5,-,N/A,,Clear,20,2012-10-18 01:35:00
8:55 PM,69.8,44.6,40,29.78,10.0,North,3.5,-,N/A,,Clear,10,2012-10-18 01:55:00
9:15 PM,69.8,44.6,40,29.79,10.0,North,4.6,-,N/A,,Clear,360,2012-10-18 02:15:00
9:35 PM,68.0,44.6,43,29.80,10.0,North,5.8,-,N/A,,Clear,350,2012-10-18 02:35:00
9:55 PM,66.2,44.6,46,29.80,10.0,North,5.8,-,N/A,,Clear,350,2012-10-18 02:55:00
10:15 PM,64.4,44.6,49,29.81,10.0,North,3.5,-,N/A,,Clear,10,2012-10-18 03:15:00
10:35 PM,64.4,44.6,49,29.81,10.0,NE,4.6,-,N/A,,Clear,50,2012-10-18 03:35:00
10:55 PM,64.4,44.6,49,29.80,10.0,ENE,4.6,-,N/A,,Clear,70,2012-10-18 03:55:00
11:15 PM,64.4,44.6,49,29.82,10.0,Calm,Calm,-,N/A,,Clear,0,2012-10-18 04:15:00
11:35 PM,64.4,44.6,49,29.82,10.0,Calm,Calm,-,N/A,,Clear,0,2012-10-18 04:35:00
11:55 PM,64.4,42.8,45,29.82,10.0,East,3.5,-,N/A,,Clear,90,2012-10-18 04:55:00